Dewpoint
69 69 70 70 70 70 70 70 70 70 70 70 70 70 70 70 69 69 71 71 71 71 71 72 72 72 72 73 73 73 73 74 74 75 75 75 75 75 75 74 74 74 74 74 73 72 72 71 71 70 70 68 68 68 67 68 68 67 67 66 66 66 65 63 62 62 64 65 64 64 66 64 65 66 66 66 67 68 68 68 69 67 67 67 68
69 69 70 70 69 70 70 70 70 70 70 70 70 69 70 70 70 70 70 71 71 71 71 71 72 72 72 72 73 73 73 74 74 74 74 74 74 74 74 74 74 74 74 74 74 73 72 72 71 71 70 69 68 67 67 67 67 67 67 66 66 66 66 64 63 63 62 64 65 67 67 65 65 67 66 65 66 67 67 68 68 67 67 67 66
68 69 70 70 70 70 70 70 70 70 69 69 69 69 69 70 71 70 70 70 71 71 71 71 72 72 72 72 73 73 73 73 74 74 74 74 74 74 74 74 74 73 73 73 73 73 72 72 71 71 71 69 69 68 67 67 67 68 67 67 67 67 66 65 65 63 63 63 65 64 65 67 66 67 67 66 67 67 67 67 66 67 67 67 66
68 69 69 69 69 70 70 70 69 69 69 69 69 69 69 69 70 70 70 70 71 72 72 72 72 72 72 72 72 72 73 73 73 74 74 74 74 74 74 74 74 74 73 73 73 73 72 72 71 71 71 70 70 69 68 68 68 68 68 68 68 68 68 66 66 65 65 63 65 64 66 66 67 67 67 67 66 67 66 67 67 66 66 67 67
67 68 68 69 69 69 69 69 69 69 69 69 69 69 69 69 69 70 70 70 70 71 72 72 72 72 72 72 72 72 72 73 73 73 74 74 74 74 74 74 74 74 74 74 74 73 73 72 72 72 71 71 70 70 69 68 68 67 67 67 68 68 68 67 67 66 65 64 64 66 67 67 68 68 68 67 67 67 67 67 67 67 67 66 66
67 67 68 68 69 69 69 69 69 69 69 69 69 69 69 69 69 70 70 70 71 71 71 72 72 72 72 72 72 72 72 72 73 73 73 73 74 74 74 74 74 74 74 74 74 73 73 73 73 72 72 71 70 71 71 70 69 68 67 67 67 68 68 68 68 67 66 65 65 65 67 65 65 67 68 68 66 66 67 67 67 67 67 66 65
67 67 67 68 68 68 69 69 69 69 69 69 69 69 69 69 69 69 70 70 70 70 71 71 72 72 72 72 72 72 72 72 73 73 73 73 74 74 74 74 74 74 74 73 73 73 73 73 73 72 72 71 71 71 71 70 70 69 68 68 68 67 67 67 68 67 67 66 66 66 66 67 66 64 67 68 68 67 66 65 65 68 67 67 66
67 67 67 68 68 68 69 69 69 69 70 70 70 69 69 69 69 70 70 70 70 70 70 71 71 72 72 72 72 73 73 72 72 73 73 73 73 73 73 73 73 73 74 74 73 73 73 73 72 72 72 72 72 71 71 71 71 70 70 69 68 68 67 67 67 67 66 66 66 65 65 66 67 66 67 67 67 66 66 65 64 64 66 68 67
67 67 67 68 68 69 69 69 69 70 70 70 70 69 69 70 70 70 70 70 70 70 70 71 71 71 72 72 72 72 72 72 72 72 72 73 73 73 73 73 73 73 73 73 73 73 73 73 73 72 73 72 69 69 69 68 71 70 70 70 69 68 67 67 66 66 66 66 65 66 66 65 66 66 66 66 65 64 67 67 66 66 66 66 66
67 67 67 68 69 69 70 70 70 70 70 70 70 70 70 70 69 70 70 70 70 71 71 71 71 71 71 72 72 72 72 72 70 65 67 72 73 73 73 73 73 73 73 73 73 73 73 73 73 72 69 68 67 66 65 65 65 69 70 70 70 69 68 67 67 66 66 65 65 65 64 64 64 65 65 65 66 67 66 66 65 65 66 66 65
67 67 68 68 69 70 70 70 70 70 70 70 70 70 70 70 70 70 70 70 70 71 71 70 70 70 71 71 71 72 72 71 66 63 63 65 71 73 73 73 73 73 73 73 73 73 73 73 73 73 71 69 69 65 65 64 64 64 64 66 67 70 69 68 67 67 66 65 66 66 65 64 64 65 65 65 65 65 65 66 65 65 64 63 62
67 68 68 69 69 70 70 70 70 70 70 70 70 71 70 70 70 70 70 70 70 70 70 70 70 70 70 70 71 71 71 67 64 63 63 62 65 72 72 73 73 73 73 73 73 73 73 73 73 73 74 74 73 72 68 64 63 63 63 63 63 64 65 68 68 68 67 66 65 65 65 64 65 65 64 64 64 65 66 65 65 64 64 63 63
68 69 69 69 70 70 70 70 70 70 71 71 71 71 71 70 70 70 70 70 70 70 70 70 70 70 70 70 70 70 71 65 63 62 62 62 62 66 72 72 72 72 73 73 73 73 73 73 73 74 73 71 72 73 74 72 64 62 62 62 62 62 62 62 63 68 69 68 66 66 66 66 65 65 65 65 66 65 65 64 65 65 64 64 63
69 69 69 70 70 70 70 70 70 71 71 71 71 71 71 70 70 70 70 70 70 70 70 70 70 70 70 70 70 70 70 66 62 61 61 61 61 63 71 72 72 72 72 73 73 73 73 73 73 73 73 74 74 74 74 74 74 72 68 67 67 66 62 60 60 61 63 67 67 67 67 68 66 67 67 67 66 65 65 64 65 64 64 64 65
69 70 70 70 71 71 71 71 71 71 71 71 71 71 71 71 71 70 70 70 70 70 70 70 70 70 70 69 69 69 69 64 61 60 59 59 60 62 70 71 72 72 73 73 73 73 73 73 74 73 73 74 74 73 74 74 73 73 73 71 70 70 70 67 65 64 65 64 65 66 67 68 68 68 68 68 67 67 66 66 66 65 65 66 66
69 70 70 70 71 71 71 71 71 71 71 71 71 71 71 71 71 71 71 70 70 70 70 70 70 70 70 70 69 69 69 62 60 59 58 58 59 66 69 71 72 72 72 73 73 73 73 73 73 73 73 74 70 65 68 73 73 72 72 72 72 72 71 67 65 65 67 67 67 66 67 67 65 69 69 68 68 68 68 67 66 66 65 65 64
70 70 70 70 71 71 71 71 71 71 72 71 71 71 71 71 71 72 71 70 70 70 70 70 70 70 70 70 70 69 69 65 59 58 57 57 59 67 69 70 71 71 72 72 73 73 73 73 73 73 73 73 69 64 63 65 72 72 72 72 72 72 72 71 64 62 62 61 60 61 61 61 61 60 60 60 63 67 70 67 66 66 65 64 64
69 70 70 71 71 71 72 72 72 72 72 72 72 71 71 71 71 72 71 70 70 70 70 70 70 70 70 70 69 69 69 66 59 56 56 56 61 68 69 70 70 71 71 72 72 73 73 71 73 73 73 73 66 63 63 65 71 72 72 72 72 72 72 71 71 68 61 60 60 60 60 60 60 59 59 59 59 60 66 66 66 68 66 65 64
69 69 70 71 71 72 72 72 72 72 72 72 72 72 72 72 72 72 71 71 71 71 71 70 70 70 69 69 67 69 69 67 59 56 56 55 61 68 70 70 70 70 71 71 72 72 72 71 70 69 71 70 64 62 62 64 71 72 72 72 71 71 72 70 70 70 70 70 69 68 67 66 67 66 66 61 60 65 65 65 66 66 66 65 66
69 69 70 71 71 72 72 72 72 72 72 72 72 72 72 72 72 72 71 71 71 71 71 70 70 70 69 70 69 69 69 70 67 56 55 54 56 68 70 70 70 70 70 71 71 72 72 73 71 63 61 62 61 60 60 59 70 72 72 72 71 71 73 71 69 70 70 70 70 70 70 70 70 70 69 69 68 68 66 65 65 66 66 66 66
70 70 71 71 71 72 72 72 72 72 72 72 72 72 72 72 72 72 71 71 71 71 71 70 70 70 70 70 69 69 69 69 69 57 54 54 54 59 69 70 70 70 71 71 71 71 72 72 72 66 61 59 58 58 57 57 59 70 73 72 72 72 69 70 70 68 70 70 70 70 70 70 70 70 70 70 70 69 69 67 66 66 66 66 66
70 71 71 71 71 72 72 73 73 73 73 73 73 73 73 73 72 72 72 72 72 72 71 71 70 70 70 70 70 70 70 66 70 59 55 54 54 54 67 70 70 71 71 71 71 71 71 72 72 68 61 58 57 55 54 55 56 64 68 62 62 61 69 70 70 69 69 69 69 68 68 68 68 68 68 69 69 69 69 69 68 67 68 68 67
70 71 71 71 72 72 73 73 73 73 73 74 73 73 73 73 73 73 73 72 72 72 72 71 71 71 71 71 71 71 71 70 63 67 56 53 53 53 57 64 63 70 70 70 71 71 72 72 72 68 61 57 54 54 54 54 55 61 57 56 57 58 64 68 67 67 67 68 68 67 67 66 66 66 67 67 67 69 68 68 69 70 70 69 69
72 70 70 71 71 72 72 73 73 74 74 74 74 73 73 73 73 73 73 72 72 72 72 72 71 70 70 70 70 70 71 71 65 61 63 54 53 52 53 56 60 68 70 70 71 72 72 73 71 60 56 53 52 53 52 53 61 56 53 54 55 59 64 66 67 67 67 67 66 66 66 67 67 66 66 67 67 68 68 68 68 69 69 69 70
69 69 69 70 71 71 72 73 73 73 74 74 74 73 73 73 73 73 73 72 72 72 72 71 71 71 70 70 70 70 71 71 71 65 60 57 53 53 53 54 55 57 67 71 71 71 55 50 50 50 49 49 50 51 52 52 53 53 53 53 59 62 64 66 68 68 67 67 67 67 66 67 67 67 68 68 68 67 67 67 67 68 68 68 68
74 71 69 69 70 71 71 71 72 73 73 74 74 74 73 73 72 73 72 72 72 72 71 71 71 71 70 70 70 70 71 71 71 71 64 61 57 54 54 54 55 55 60 67 57 55 55 54 53 54 56 60 67 69 68 67 60 59 58 58 63 64 64 66 67 67 67 67 67 67 67 66 66 67 67 67 66 65 65 65 65 65 65 66 66
74 74 72 70 70 71 71 71 72 72 73 73 73 73 73 73 73 72 72 72 71 71 71 71 70 70 70 70 70 71 71 72 72 72 71 68 67 64 59 58 56 56 60 62 60 63 63 65 65 62 62 61 62 61 63 64 66 65 65 66 66 66 65 66 66 67 67 67 66 66 66 66 65 64 63 63 62 62 63 63 63 62 62 63 63
73 73 72 73 71 70 71 73 73 72 72 72 72 72 73 73 73 72 72 72 72 71 71 71 70 70 70 70 71 71 71 72 72 72 71 70 69 68 66 64 63 63 62 63 65 65 66 64 64 67 67 67 65 64 63 63 63 62 62 62 62 62 62 62 63 66 66 64 63 63 63 62 61 61 61 61 61 61 62 62 61 61 61 62 61
73 72 72 73 72 72 71 72 73 72 72 69 57 54 58 72 73 73 73 74 73 72 72 72 71 72 71 71 71 71 71 72 72 65 71 63 68 68 67 66 65 66 64 60 66 66 67 68 68 67 66 64 63 62 61 61 60 60 60 60 60 60 60 61 60 60 61 61 61 60 59 60 60 60 60 59 60 59 60 60 60 61 61 61 61
72 72 72 72 72 73 72 72 74 72 70 66 61 56 50 44 47 60 69 58 56 56 64 72 73 73 72 73 71 72 72 72 65 58 58 56 56 58 59 59 59 63 58 57 64 66 66 65 65 64 64 63 61 60 59 59 59 59 59 58 59 59 59 59 59 59 59 60 59 59 59 59 59 59 59 59 58 58 58 58 59 60 60 60 60
71 71 72 72 71 74 73 73 72 70 68 66 65 63 62 58 45 42 48 52 46 46 52 54 57 65 72 71 58 50 50 53 54 54 53 52 52 52 51 50 50 50 52 63 66 65 64 63 62 62 61 61 60 59 59 59 59 58 58 58 59 59 59 59 58 59 59 59 59 59 59 59 58 58 58 58 57 58 58 59 60 60 60 60 60
71 71 71 72 72 71 71 70 69 68 67 67 66 66 66 64 62 49 43 45 44 42 40 45 52 56 58 63 61 60 49 45 46 47 47 47 46 45 44 45 46 49 52 56 63 63 62 62 61 60 60 59 59 59 59 58 58 58 58 58 58 58 59 58 59 59 59 59 59 59 59 58 58 57 58 57 57 58 58 58 58 58 58 58 59
69 70 71 72 71 72 69 69 68 68 67 67 67 67 68 67 65 62 58 46 43 42 43 41 43 49 52 52 54 55 50 44 44 44 44 44 44 44 44 45 47 48 53 61 63 62 61 61 61 59 59 58 59 59 59 58 58 58 58 59 59 59 59 59 59 59 59 59 58 58 58 57 57 57 57 57 57 57 57 57 57 57 57 57 57
69 70 71 72 70 70 69 69 68 68 68 68 68 68 68 68 66 64 64 63 63 55 48 44 42 43 42 42 43 42 43 43 43 43 44 45 45 47 48 50 45 49 56 62 62 61 60 60 59 59 59 59 59 58 58 58 59 59 59 59 59 59 59 59 59 59 59 58 58 58 58 57 57 57 57 57 57 57 57 57 57 56 56 57 56
68 71 73 73 70 70 69 69 68 68 67 68 68 68 68 67 65 65 66 66 65 63 60 56 48 42 47 44 41 42 42 43 43 44 44 46 47 47 52 60 60 60 61 61 61 60 60 59 59 58 59 58 58 58 58 58 58 58 59 60 59 59 59 58 58 58 58 59 58 58 57 57 57 57 57 56 56 56 56 56 57 56 56 56 56
67 68 68 69 70 70 69 69 68 68 68 68 68 68 66 65 65 65 63 63 61 58 56 53 51 48 44 42 41 42 43 43 44 44 45 47 48 52 60 60 59 60 59 59 59 59 59 59 59 58 58 58 58 58 59 58 58 59 59 59 59 59 58 59 58 59 58 59 58 57 57 58 57 56 57 56 57 56 56 56 56 56 56 56 56
66 67 68 68 69 69 68 68 68 67 66 66 66 66 65 65 64 63 62 61 59 57 55 55 56 56 54 54 48 44 44 45 46 46 46 47 49 59 60 59 59 59 58 59 59 59 58 58 58 58 58 58 58 58 59 59 58 58 56 58 57 58 59 58 58 58 59 59 58 58 58 58 58 57 57 56 56 57 57 56 56 56 55 54 54
66 66 66 68 69 68 67 67 65 63 65 65 66 65 64 64 64 63 61 60 59 57 57 58 58 57 57 57 58 56 53 48 50 51 52 53 57 60 60 60 59 59 59 59 59 59 58 58 59 58 58 58 58 58 58 58 58 58 58 58 58 58 55 57 57 58 58 59 59 58 58 58 58 58 57 57 57 57 57 57 56 55 55 55 54
65 63 63 65 66 67 65 65 65 65 65 65 65 65 64 64 64 64 63 61 61 61 61 61 60 58 58 59 59 60 59 60 60 60 60 61 61 61 60 60 59 59 59 59 59 59 59 58 59 58 58 58 58 58 58 58 58 57 57 57 58 58 58 59 59 58 59 59 59 59 59 59 59 58 57 57 57 58 58 58 58 57 57 56 57
65 65 65 63 65 64 66 66 65 65 65 65 65 65 64 64 63 63 62 62 61 61 62 60 59 59 60 60 60 61 60 60 60 60 60 60 60 60 60 60 59 59 59 59 59 59 59 59 59 58 58 58 58 58 57 57 57 57 57 59 59 59 59 58 59 59 59 59 59 59 59 59 59 59 59 58 58 58 57 58 57 57 57 57 57
65 66 67 64 63 65 66 65 65 65 65 65 65 65 64 64 64 64 63 63 62 62 62 61 61 61 60 57 53 56 61 60 60 60 60 60 60 60 60 59 59 59 59 59 59 59 59 58 58 58 58 58 57 57 57 57 57 56 57 57 58 58 58 58 58 59 59 59 59 59 59 59 59 59 59 59 54 57 58 58 58 58 58 58 58
63 64 65 64 64 65 64 64 64 65 65 65 65 65 64 64 64 64 63 63 62 62 61 59 58 56 51 49 49 52 59 60 60 60 60 60 60 60 60 60 60 60 59 59 59 59 58 57 57 58 58 58 58 57 57 57 58 56 56 57 57 57 58 58 58 59 59 60 59 59 60 59 59 58 59 53 59 59 60 58 58 58 58 58 57
62 63 64 65 64 64 64 64 64 64 64 64 64 65 65 64 64 63 63 63 62 61 59 58 59 59 57 52 53 54 60 60 60 60 60 59 59 59 59 59 59 58 58 58 58 59 59 59 58 58 58 59 59 59 59 59 58 57 56 57 57 57 57 59 59 60 60 60 61 59 59 59 59 59 59 59 59 59 59 59 58 58 58 58 57
60 60 62 62 63 63 64 64 63 63 63 63 63 63 64 63 63 63 62 61 61 60 59 59 59 59 59 58 57 58 60 60 60 59 59 59 59 58 58 58 58 57 57 57 57 58 58 58 58 57 57 57 57 57 57 57 57 57 56 57 56 56 57 59 59 59 59 60 60 60 60 59 59 59 59 58 59 60 59 59 59 58 58 57 57
57 58 59 59 60 61 61 62 62 63 62 62 61 61 62 61 61 61 60 60 60 60 59 59 59 59 58 59 59 59 59 59 60 60 59 59 58 57 56 54 53 53 52 51 51 52 53 54 55 55 54 54 54 53 53 53 53 54 54 55 55 56 57 57 58 57 58 59 59 59 60 59 59 59 60 59 58 59 59 59 59 56 58 57 57
56 56 57 57 57 57 57 57 58 58 58 58 58 58 58 59 59 59 59 59 58 58 58 58 58 58 58 58 58 57 56 54 53 53 53 53 53 52 51 50 49 49 48 48 48 48 48 49 49 50 50 50 49 48 48 48 48 48 48 48 48 49 49 50 52 56 58 59 59 59 59 59 59 58 58 59 58 58 57 57 57 56 56 55 54
54 55 55 55 56 56 56 56 56 56 56 56 56 55 55 55 56 56 56 56 54 54 54 54 55 54 52 52 52 51 50 49 48 47 47 47 47 47 47 47 46 45 45 45 45 45 45 45 45 46 46 47 47 46 45 44 44 44 44 44 43 43 42 42 44 51 54 57 57 57 57 56 56 56 54 54 54 55 54 54 54 56 55 54 54
52 52 52 52 53 53 54 54 54 55 54 54 54 53 53 53 53 52 51 51 51 51 52 52 52 51 51 49 49 49 48 47 46 45 44 43 43 43 44 44 44 43 43 43 43 43 43 43 43 43 43 44 44 44 44 43 42 42 41 41 41 40 39 39 43 45 45 47 53 55 56 55 55 54 53 53 52 52 53 52 52 52 53 53 52
51 50 50 49 50 50 51 51 52 51 51 51 51 50 51 50 50 50 50 49 48 49 48 48 48 49 49 48 47 47 47 47 46 45 44 43 42 41 41 41 42 41 41 41 41 41 41 41 42 42 42 42 42 42 42 42 41 40 40 40 39 38 36 37 40 41 40 44 49 53 54 54 54 54 53 53 52 52 52 53 53 51 52 52 52
50 50 49 49 49 49 49 49 49 48 49 49 49 49 49 48 48 48 48 48 47 47 47 47 46 46 46 45 44 44 44 44 43 44 44 44 42 42 41 40 40 40 40 40 40 40 40 41 41 41 41 41 41 41 41 41 40 39 38 38 37 36 36 37 39 39 41 43 46 50 53 53 54 53 52 52 52 52 51 51 52 51 51 51 51
49 49 50 49 48 48 48 47 47 47 47 47 47 46 47 46 46 46 46 45 45 45 45 44 44 44 43 43 44 43 42 42 41 42 42 43 43 43 43 41 41 40 39 39 38 38 38 38 39 40 39 40 40 40 40 40 40 38 37 37 35 36 36 37 40 37 39 40 49 52 52 52 53 52 51 50 51 52 51 52 52 52 51 50 51